Regional Weather Roundup
Issued by NWS

Home | Current Version | Previous Version | Text Only | Print | Product List | Glossary On
Versions: 1 2 3 4 5 6 7 8 9 10 11 12 13 14 15 16 17 18 19 20 21 22 23 24 25 26 27 28 29 30 31 32 33 34 35 36 37 38 39 40 41 42 43 44 45 46 47 48 49 50
000
ASUS43 KMPX 250901
RWRMN
WEATHER ROUNDUP FOR MINNESOTA
NATIONAL WEATHER SERVICE TWIN CITIES/CHANHASSEN MN
400 AM CDT MON MAY 25 2015


NOTE: "FAIR" INDICATES FEW OR NO CLOUDS BELOW 12,000 FEET WITH NO
SIGNIFICANT WEATHER AND/OR OBSTRUCTIONS TO VISIBILITY. N/A MEANS
CURRENT SKY AND/OR WEATHER CONDITIONS ARE NOT AVAILABLE.

MNZ060>063-068>070-251000-
   Twin Cities Metro

CITY           SKY/WX    TMP DP  RH WIND       PRES   REMARKS
TWIN CITIES    CLOUDY    58  57  97 E9        29.69F
ST PAUL        LGT RAIN  58  57  97 SE6       29.70F
CRYSTAL        CLOUDY    57  57 100 CALM      29.68F FOG
BLAINE         DRIZZLE   59  59 100 E6        29.70S
LAKEVILLE      LGT RAIN  57  57 100 E3        29.69F
EDEN PRAIRIE   CLOUDY    59  58  96 E6        29.67F FOG
SOUTH ST PAUL  DRIZZLE   58  57  96 CALM      29.69F
LAKE ELMO      HVY RAIN  57  55  94 E3        29.71F
$$
MNZ001>005-007-008-013>017-022>024-027-028-251000-
   Northwest Minnesota

CITY           SKY/WX    TMP DP  RH WIND       PRES   REMARKS
BEMIDJI        DRIZZLE   56  53  92 CALM      29.84S
HALLOCK        CLOUDY    55  50  82 CALM      29.81F
ROSEAU         CLOUDY    54  48  82 CALM      29.82F
WARROAD        CLOUDY    54  48  82 CALM      29.83S
THIEF RVR FALL CLOUDY    57  50  77 CALM      29.84S
CROOKSTON      CLOUDY    59  52  77 CALM      29.84S
FOSSTON        DRIZZLE   55  48  76 CALM      29.84F
DETROIT LAKES  LGT RAIN  55  54  94 NE9       29.81F
MOORHEAD       LGT RAIN  57  55  94 N12       29.82F
PARK RAPIDS    LGT RAIN  57  54  89 NE9G17    29.79F
MAHNOMEN       DRIZZLE   57  54  91 N7        29.83F
$$
MNZ006-009>011-018-025>026-251000-
   North Central Minnesota

CITY           SKY/WX    TMP DP  RH WIND       PRES   REMARKS
BAUDETTE       CLOUDY    53  51  93 CALM      29.81F
FLAG ISLAND    CLOUDY    57  52  82 N8        29.82S
INTL FALLS     CLOUDY    53  49  86 CALM      29.82F
WASKISH        CLOUDY    55  54  94 CALM      29.83F
BIG FORK       CLOUDY    55  52  88 CALM      29.84F
LONGVILLE      LGT RAIN  55  55 100 NE7       29.79F
GRAND RAPIDS   CLOUDY    55  54  94 NE3       29.82F
CRANE LAKE     CLOUDY    52  48  87 CALM      29.86S
ORR            CLOUDY    55  50  82 CALM      29.82F
COOK           LGT RAIN  55  52  88 CALM      29.85F
WALKER         RAIN      56  55  94 NE5       29.81F
$$
MNZ012-019>021-037-251000-
   Northeast Minnesota

CITY           SKY/WX    TMP DP  RH WIND       PRES   REMARKS
DULUTH         LGT RAIN  58  55  90 NE13      29.80F
ELY            DRIZZLE   55  52  88 CALM      29.85F
HIBBING        RAIN      56  54  93 E5        29.83F
EVELETH        RAIN      54  54 100 NE5       29.85F
DULUTH HARBOR  DRIZZLE   46  45  93 E12       29.80F
TWO HARBORS    LGT RAIN  61  55  82 NE7       29.80F
GRAND MARAIS     N/A     51  48  89 CALM      29.86F
G MARAIS ARPRT LGT RAIN  54  39  58 CALM      29.89F
$$
MNZ029>031-032-039>041-046>048-054>057-064-251000-
   West Central Minnesota

CITY           SKY/WX    TMP DP  RH WIND       PRES   REMARKS
FERGUS FALLS   RAIN      57  57 100 NE9       29.76F
WHEATON        DRIZZLE   55  54  94 N8        29.76F
MORRIS         LGT RAIN  57  57 100 N5        29.72S
ALEXANDRIA     LGT RAIN  57  57 100 NE7       29.74F FOG
ELBOW LAKE     LGT RAIN  56  56  98 NE8       29.74S
WADENA         HVY RAIN  55  55 100 NE10      29.75F
GLENWOOD       CLOUDY    55  55 100 NE8       29.73S
APPLETON       RAIN      59  55  88 N6        29.71F
BENSON         HVY RAIN  57  55  94 CALM      29.71F
ORTONVILLE     RAIN      57  55  94 N8        29.73S
MADISON        CLOUDY    57  55  94 VRB6      29.72S
WILLMAR        LGT RAIN  57  57 100 N3        29.71F
$$
MNZ033>034-036-042>043-049>051-058-059-251000-
   Central Minnesota

CITY           SKY/WX    TMP DP  RH WIND       PRES   REMARKS
ST CLOUD       LGT RAIN  57  56  96 E8        29.70F FOG
SAUK CENTRE    DRIZZLE   56  55  97 NE7       29.72S
PAYNESVILLE    DRIZZLE   54  55 100 N5        29.70F
AITKIN         LGT RAIN  57  54  88 NE10      29.74F
PINE RIVER     LGT RAIN  57  55  94 NE7G17    29.80F
BRAINERD       LGT RAIN  57  56  96 NE10      29.74F FOG
STAPLES        RAIN      55  55 100 NE6       29.74F
LONG PRAIRIE   DRIZZLE   55  54  94 NE6       29.73F
LITTLE FALLS   RAIN      55  54  94 NE6       29.72F
LITCHFIELD     CLOUDY    57  57 100 NE6       29.70F
BUFFALO        DRIZZLE   57  55  92 NE7       29.69F
MAPLE LAKE     RAIN      58  57  97 E7        29.70F
$$
MNZ037-044-045-052-053-251000-
   East Central Minnesota

CITY           SKY/WX    TMP DP  RH WIND       PRES   REMARKS
PRINCETON      RAIN      57  57 100 E5        29.71F
MORA           DRIZZLE   54  52  94 E3        29.74F
CAMBRIDGE      RAIN      59  52  77 NE3       29.69F
RUSH CITY      CLOUDY    57  56  96 NE5       29.72F
MOOSE LAKE     LGT RAIN  55  54  94 E9        29.74F
HINCKLEY       CLOUDY    57  57 100 NE8       29.73F FOG
CLOQUET        RAIN      57  55  94 NE9G16    29.78F
MCGREGOR       CLOUDY    57  55  94 NE9       29.77F
$$
MNZ071>073-080-081-089-090-097-098-251000-
   Southwest Minnesota

CITY           SKY/WX    TMP DP  RH WIND       PRES   REMARKS
MONTEVIDEO     RAIN      57  57 100 NE5       29.72S
GRANITE FALLS  DRIZZLE   57  57  99 N3        29.72S
CANBY          DRIZZLE   57  56  97 N5        29.73S
MARSHALL       CLOUDY    57  54  88 NW7       29.70F
REDWOOD FALLS  CLOUDY    58  57  97 CALM      29.69S FOG
OLIVIA         DRIZZLE   54  54 100 CALM      29.69S
WINDOM         FOG       57  57 100 W6        29.70F VSB 3/4
WORTHINGTON    CLOUDY    57  55  94 NW7       29.72F VSB 1
JACKSON        CLOUDY    59  59 100 W6        29.71F FOG
TRACY          FOG       58  57  99 NW5       29.71S VSB 1/2
SLAYTON        CLOUDY    56  56 100 CALM      29.73S
$$
MNZ065>067-074>077-082>085-091>093-251000-
   South Central Minnesota

CITY           SKY/WX    TMP DP  RH WIND       PRES   REMARKS
MANKATO        CLOUDY    63  61  94 S6        29.68F
NEW ULM        DRZL/FOG  57  57 100 W3        29.68S VSB 1/4
ST JAMES       FOG       61  61 100 SW5       29.70R VSB 1/2
FAIRMONT       CLOUDY    61  55  82 SW8       29.70S
GLENCOE        CLOUDY    59  59 100 E5        29.67F FOG
FARIBAULT      CLOUDY    61  61 100 SE3       29.69S FOG
OWATONNA       CLOUDY    63  61  94 S8        29.70R FOG
WASECA         CLOUDY    61  59  94 S9        29.70F FOG
ALBERT LEA     CLOUDY    63  61  94 SW5       29.70F FOG
$$
MNZ078>079-086>088-094>096-251000-
   Southeast Minnesota

CITY           SKY/WX    TMP DP  RH WIND       PRES   REMARKS
ROCHESTER      CLOUDY    59  58  96 SE8       29.72S FOG
RED WING       CLOUDY    57  57 100 E5        29.69F
STANTON        CLOUDY    60  58  91 SE6       29.68S
DODGE CENTER   CLOUDY    61  61 100 S6        29.70F FOG
WINONA         CLOUDY    59  59 100 CALM      29.72S FOG
AUSTIN         CLOUDY    63  61  94 SW6       29.70F FOG
PRESTON        LGT RAIN  59  58  97 S6        29.72F VSB 1/4
$$
ABBREVIATIONS USED IN REMARKS
   TC - TEMPERATURES IN CELSIUS
  WCI - WIND CHILL INDEX
   HX - HEAT INDEX
  VSB - VISIBILITY
$$


USA.gov is the U.S. government's official web portal to all federal, state and local government web resources and services.